Regional Weather Roundup
Issued by NWS Midland/Odessa, TX

Home | Current Version | Previous Version | Text Only | Print | Product List | Glossary On
Versions: 1 2 3 4 5 6 7 8 9 10 11 12 13 14 15 16 17 18 19 20 21 22 23 24 25 26 27 28 29 30 31 32 33 34 35 36 37 38 39 40 41 42 43 44 45 46 47 48 49 50
000
ASUS44 KMAF 011610
RWRMAF
MIDLAND AREA WEATHER ROUNDUP
NATIONAL WEATHER SERVICE MIDLAND TX
1100 AM CDT TUE SEP 01 2015

...IN SOUTHWEST TEXAS AND SOUTHEAST NEW MEXICO...

CITY           SKY/WX    TMP DP  RH WIND       PRES   REMARKS
ALPINE         SUNNY     82  52  34 CALM      30.20R
ANDREWS        FAIR      82  60  46 S13       30.10S
ARTESIA        SUNNY     79  57  47 S15       30.09R
BIG SPRING     NOT AVBL
CARLSBAD       SUNNY     81  56  42 S9        30.06S
DRYDEN           N/A     78  66  66 VRB7      30.07R
FORT STOCKTON  SUNNY     83  60  45 SE13      30.07R
GUAD PASS      SUNNY     80  47  31 E8        30.22R
HOBBS          SUNNY     79  59  50 SE14      30.12R
MARFA          SUNNY     77  54  44 SE8       30.19R
MIDLAND AIRPK  SUNNY     84  60  43 S8        30.09R
MIDLAND INTL   SUNNY     84  59  42 S16       30.08R
ODESSA         NOT AVBL
PECOS          SUNNY     85  57  38 E13       30.03S
PRESIDIO       NOT AVBL
SEMINOLE       SUNNY     82  58  43 S12       30.11S
SNYDER         SUNNY     80  63  56 S9        30.09R
WINK           SUNNY     82  61  48 SE16      30.05R
$$
...OTHER STATIONS IN TEXAS...

CITY           SKY/WX    TMP DP  RH WIND       PRES   REMARKS
ABILENE        SUNNY     84  66  54 S13       30.07R
AMARILLO       SUNNY     80  57  45 S23G31    30.10R
AUSTIN         PTSUNNY   84  72  67 SE6       30.04F
BROWNSVILLE    PTSUNNY   84  75  74 E14       30.00R
CORPUS CHRISTI PTSUNNY   84  73  69 E15       30.01S
DALLAS FTW     MOSUNNY   86  67  52 S9        30.05R
DEL RIO        MOSUNNY   82  67  60 SE13      30.02S
EL PASO        MOSUNNY   85  46  25 NE5       30.08R
HOUSTON INT    CLOUDY    78  68  71 S7        30.08R
LUBBOCK        MOSUNNY   81  60  48 S12       30.10R
SAN ANGELO     MOSUNNY   83  65  54 SE9       30.08R
SAN ANTONIO    PTSUNNY   83  71  67 SE10      30.06S
WACO           MOSUNNY   84  70  62 S7        30.06F
WICHITA FALLS  NOT AVBL
$$
...OTHER LOCATIONS IN NEW MEXICO...

CITY           SKY/WX    TMP DP  RH WIND       PRES   REMARKS
ALAMAGORDO     MOSUNNY   81  46  30 CALM      30.11R
ALBUQUERQUE    MOSUNNY   77  48  35 CALM      30.21S
CANNON AFB     SUNNY     80  55  41 S15       30.13R
CLOVIS         SUNNY     81  55  41 S15       30.14R
HOLLOMAN AFB   MOSUNNY   83  49  30 VRB1      30.08R
ROSWELL        SUNNY     79  56  45 S13       30.09R
RUIDOSO        SUNNY     75  46  35 MISG      30.31S
SANTA FE       SUNNY     77  45  32 N9        30.26R
TRUTH OR CONSE SUNNY     82  49  31 VRB5      30.15S
TUCUMCARI      SUNNY     84  52  33 VRB6      30.07S
$$




USA.gov is the U.S. government's official web portal to all federal, state and local government web resources and services.